{"data":{"norad_id":63174,"intl_designator":"2025-046R","name":"QIANFAN-88","alt_names":[],"object_type":"PAYLOAD","status":"ACTIVE","operator":null,"country":"PRC","launch_date":"2025-03-11","launch_site_code":"WSC","launch_vehicle":null,"mission":null,"orbit_class":"UNKNOWN","rcs_meters":null,"size_class":null,"mass_kg":null,"dimensions":null,"purposes":[],"wikipedia_slug":null,"has_3d_model":false,"image_url":null,"decayed_at":null,"tle_current":{"epoch":"2026-05-25T03:35:30.774336Z","epoch_age_seconds":62187,"freshness":"FRESH","line1":"1 63174U 25046R   26145.14966174  .00000043  00000+0  48391-4 0  9999","line2":"2 63174  88.9691 302.9108 0012744  32.0869 328.1055 13.51005690 69574","mean_motion":13.5100569,"eccentricity":0.0012744,"inclination_deg":88.9691,"raan_deg":302.9108,"arg_perigee_deg":32.0869,"mean_anomaly_deg":328.1055,"bstar":4.8391e-5,"rev_number":6957,"period_min":106.58726389228,"perigee_km":1059.0706049279,"apogee_km":1078.0507479656,"semimajor_km":7446.6976764467,"source":"CELESTRAK","updated_at":"2026-05-25T13:38:03.542178Z"}}}